Weather History for Cherokee, IA

Change the Weather History Date:

Wednesday, April 17, 2013

  Actual Average Record
Temperature  
Mean Temperature 36 °F -  
Max Temperature 38 °F 62 °F 86 °F (1967)
Min Temperature 33 °F 37 °F 20 °F (1990)
Degree Days  
Heating Degree Days 30    
Moisture  
Dew Point 33 °F    
Average Humidity 89    
Maximum Humidity 97    
Minimum Humidity 75    
Precipitation  
Precipitation 0.38 in - - ()
Sea Level Pressure  
Sea Level Pressure 30.02 in    
Wind  
Wind Speed 11 mph (NE)    
Max Wind Speed 17 mph    
Max Gust Speed 24 mph    
Visibility 6 miles    
Events Rain , Snow , Thunderstorm    
Averages and records for this station are not official NWS values.
T = Trace of Precipitation, MM = Missing Value Source: NWS Daily Summary

Daily Weather History Graph

Daily Weather History Graph

Search for Another Location

Airport:

Trip Planner

Search our weather history database for the weather conditions in past years. The results will help you decide how hot, cold, wet, or windy it might be!

Date:

Astronomy

Apr. 17, 2013 Rise Set
Actual Time 6:37 AM CDT 8:07 PM CDT
Civil Twilight 6:07 AM CDT 8:36 PM CDT
Nautical Twilight 5:31 AM CDT 9:12 PM CDT
Astronomical Twilight 4:54 AM CDT 9:50 PM CDT
Moon 11:49 AM CDT (4/17) 1:48 AM CDT (4/17)
Length of Visible Light 14h 29m
Length of Day
13h 29m
Waxing Crescent, 42% of the Moon is Illuminated
Apr 17
Waxing Crescent
Apr 18
First Quarter
Apr 25
Full
May 2
Last Quarter
May 9
New

Hourly Weather History & Observations

Time (CDT) Temp. Windchill Dew Point Humidity Pressure Visibility Wind Dir Wind Speed Gust Speed Precip Events Conditions
12:15 AM 37.0 °F 29.8 °F 31.6 °F 81% 30.23 in 10.0 mi NE 10.4 mph - N/A   Overcast
12:35 AM 36.9 °F 30.1 °F 31.6 °F 81% 30.23 in 10.0 mi NE 9.2 mph - N/A   Overcast
12:55 AM 36.7 °F 29.9 °F 31.6 °F 82% 30.24 in 10.0 mi NNE 9.2 mph - N/A   Overcast
1:15 AM 36.7 °F 29.4 °F 31.5 °F 81% 30.23 in 10.0 mi NNE 10.4 mph - N/A   Overcast
1:35 AM 36.5 °F 29.7 °F 31.5 °F 82% 30.23 in 10.0 mi NNE 9.2 mph - N/A   Overcast
1:55 AM 36.7 °F 30.5 °F 31.1 °F 80% 30.23 in 10.0 mi NE 8.1 mph - N/A   Overcast
2:15 AM 36.9 °F 29.6 °F 30.9 °F 79% 30.23 in 10.0 mi NE 10.4 mph - N/A   Overcast
2:35 AM 36.9 °F 30.7 °F 30.6 °F 78% 30.22 in 10.0 mi NE 8.1 mph - N/A   Overcast
2:55 AM 36.9 °F 30.1 °F 30.4 °F 77% 30.19 in 10.0 mi NE 9.2 mph 16.1 mph N/A   Overcast
3:15 AM 36.9 °F 28.7 °F 30.4 °F 77% 30.16 in 10.0 mi NNE 12.7 mph 18.4 mph N/A   Overcast
3:35 AM 36.5 °F 28.7 °F 30.6 °F 79% 30.15 in 10.0 mi NNE 11.5 mph 16.1 mph N/A   Overcast
3:55 AM 36.5 °F 27.8 °F 30.2 °F 78% 30.14 in 10.0 mi NE 13.8 mph 19.6 mph N/A   Overcast
4:15 AM 36.5 °F 27.8 °F 30.2 °F 78% 30.14 in 10.0 mi NNE 13.8 mph 18.4 mph N/A   Overcast
4:35 AM 36.7 °F 28.4 °F 30.0 °F 77% 30.13 in 10.0 mi NE 12.7 mph 17.3 mph N/A   Overcast
4:55 AM 36.9 °F 30.1 °F 30.0 °F 76% 30.16 in 10.0 mi NE 9.2 mph - N/A   Overcast
5:15 AM 36.9 °F 30.1 °F 30.2 °F 77% 30.17 in 10.0 mi NNE 9.2 mph - N/A   Overcast
5:35 AM 36.9 °F 29.1 °F 30.2 °F 77% 30.16 in 10.0 mi NNE 11.5 mph - N/A   Overcast
5:55 AM 36.7 °F 29.4 °F 30.0 °F 77% 30.12 in 10.0 mi NNE 10.4 mph - N/A   Overcast
6:15 AM 36.5 °F 27.8 °F 29.8 °F 77% 30.10 in 10.0 mi NE 13.8 mph - N/A   Overcast
6:35 AM 36.5 °F 28.2 °F 29.8 °F 77% 30.08 in 10.0 mi NNE 12.7 mph 20.7 mph N/A   Overcast
6:55 AM 37.0 °F 28.9 °F 29.7 °F 75% 30.11 in 10.0 mi NNE 12.7 mph 20.7 mph N/A   Overcast
7:15 AM 36.1 °F 30.6 °F 31.1 °F 82% 30.16 in 4.0 mi NE 6.9 mph - 0.02 in Rain , Thunderstorm Rain
7:35 AM 35.2 °F 31.2 °F 31.1 °F 85% 30.18 in 3.0 mi NNE 4.6 mph - 0.06 in Snow , Thunderstorm Light Thunderstorms and Snow
7:55 AM 33.8 °F 26.4 °F 31.6 °F 92% 30.14 in 2.0 mi NNE 9.2 mph - 0.12 in   Overcast
8:15 AM 33.8 °F 25.8 °F 32.0 °F 93% 30.11 in 1.8 mi NNE 10.4 mph - 0.05 in   Overcast
8:35 AM 33.8 °F 23.9 °F 32.0 °F 93% 30.08 in 2.0 mi NE 15.0 mph - 0.09 in Rain Rain
9:15 AM 33.8 °F 24.3 °F 32.2 °F 94% 30.06 in 5.0 mi NE 13.8 mph - N/A Rain Light Rain
9:35 AM 34.3 °F 25.5 °F 32.5 °F 93% 30.04 in 7.0 mi NE 12.7 mph 17.3 mph 0.01 in Rain Light Rain
9:55 AM 34.7 °F 25.5 °F 32.9 °F 93% 30.05 in 7.0 mi NE 13.8 mph 18.4 mph 0.01 in Rain Light Rain
10:15 AM 34.9 °F 26.2 °F 33.1 °F 93% 30.04 in 7.0 mi NE 12.7 mph 20.7 mph N/A   Overcast
10:35 AM 35.6 °F 27.1 °F 33.8 °F 93% 30.04 in 10.0 mi NE 12.7 mph 19.6 mph N/A   Overcast
10:55 AM 36.1 °F 28.2 °F 34.3 °F 93% 30.04 in 10.0 mi ENE 11.5 mph 16.1 mph N/A   Overcast
11:15 AM 36.7 °F 29.4 °F 34.9 °F 93% 30.05 in 10.0 mi ENE 10.4 mph 16.1 mph N/A   Overcast
11:35 AM 37.4 °F 29.8 °F 35.6 °F 93% 30.04 in 3.0 mi NE 11.5 mph - N/A   Overcast
11:55 AM 37.8 °F 30.2 °F 36.5 °F 95% 30.03 in 2.0 mi NE 11.5 mph 16.1 mph N/A Rain Light Rain
12:15 PM 37.8 °F 31.3 °F 36.5 °F 95% 30.00 in 2.5 mi NE 9.2 mph 16.1 mph N/A Rain Light Rain
12:35 PM 37.9 °F 30.0 °F 36.7 °F 95% 29.99 in 2.5 mi NE 12.7 mph 17.3 mph N/A   Overcast
12:55 PM 38.3 °F 30.9 °F 37.0 °F 95% 29.98 in 3.0 mi NE 11.5 mph 17.3 mph N/A   Overcast
1:15 PM 38.3 °F 31.9 °F 36.9 °F 95% 29.98 in 4.0 mi NE 9.2 mph 17.3 mph N/A   Overcast
1:35 PM 38.3 °F 31.4 °F 36.7 °F 94% 29.98 in 5.0 mi NE 10.4 mph 16.1 mph N/A   Overcast
1:55 PM 38.3 °F 30.9 °F 36.5 °F 93% 29.97 in 3.0 mi ENE 11.5 mph - N/A   Drizzle
2:15 PM 38.3 °F 31.9 °F 36.9 °F 95% 29.97 in 3.0 mi ENE 9.2 mph - N/A   Light Drizzle
2:35 PM 37.9 °F 30.5 °F 36.7 °F 95% 29.94 in 2.5 mi NE 11.5 mph 18.4 mph N/A Rain Light Rain
2:55 PM 37.9 °F 29.2 °F 36.7 °F 95% 29.94 in 2.0 mi NE 15.0 mph 18.4 mph N/A   Drizzle
3:35 PM 38.3 °F 30.1 °F 36.7 °F 94% 29.92 in 2.5 mi NE 13.8 mph 19.6 mph N/A Rain Light Rain
3:55 PM 38.3 °F 30.9 °F 36.7 °F 94% 29.90 in 3.0 mi NE 11.5 mph 18.4 mph N/A Rain Light Rain
4:15 PM 38.3 °F 30.5 °F 36.7 °F 94% 29.89 in 4.0 mi NE 12.7 mph 21.9 mph N/A   Light Drizzle
4:35 PM 38.3 °F 29.7 °F 36.5 °F 93% 29.87 in 5.0 mi NE 15.0 mph 21.9 mph N/A   Overcast
4:55 PM 37.6 °F 29.6 °F 35.8 °F 93% 29.89 in 5.0 mi NE 12.7 mph 21.9 mph N/A   Overcast
5:15 PM 37.4 °F 29.3 °F 35.8 °F 94% 29.87 in 5.0 mi NE 12.7 mph 21.9 mph N/A   Overcast
5:35 PM 37.4 °F 29.8 °F 35.6 °F 93% 29.85 in 5.0 mi NNE 11.5 mph 20.7 mph N/A   Overcast
5:55 PM 37.0 °F 32.4 °F 35.6 °F 95% 29.91 in 3.0 mi North 5.8 mph 9.2 mph N/A Rain , Thunderstorm Light Thunderstorms and Rain
6:15 PM 36.3 °F 28.0 °F 34.9 °F 95% 29.87 in 1.2 mi NNE 12.7 mph 17.3 mph 0.08 in Rain , Thunderstorm Heavy Thunderstorms and Rain
6:35 PM 36.5 °F 31.0 °F 35.2 °F 95% 29.93 in 3.0 mi ENE 6.9 mph - 0.10 in Rain , Thunderstorm Thunderstorms and Rain
6:55 PM 36.5 °F 31.0 °F 35.4 °F 96% 29.89 in 1.5 mi NNE 6.9 mph - 0.15 in Rain , Thunderstorm Heavy Thunderstorms and Rain
7:15 PM 36.5 °F 28.2 °F 35.2 °F 95% 29.87 in 7.0 mi North 12.7 mph 17.3 mph 0.01 in Rain Light Rain
7:35 PM 36.5 °F 27.0 °F 35.1 °F 95% 29.84 in 10.0 mi North 16.1 mph 21.9 mph 0.01 in Thunderstorm Overcast
7:55 PM 36.5 °F 28.7 °F 34.9 °F 94% 29.86 in 10.0 mi NNE 11.5 mph 17.3 mph 0.01 in   Overcast
8:15 PM 36.1 °F 27.7 °F 34.7 °F 94% 29.86 in 10.0 mi NNE 12.7 mph - N/A   Overcast
8:35 PM 36.1 °F 26.9 °F 34.3 °F 93% 29.87 in 10.0 mi NNE 15.0 mph 21.9 mph N/A   Overcast
8:55 PM 36.0 °F 27.5 °F 34.2 °F 93% 29.86 in 10.0 mi NNE 12.7 mph - N/A   Overcast
9:15 PM 35.8 °F 27.8 °F 34.0 °F 93% 29.88 in 10.0 mi NNE 11.5 mph 20.7 mph N/A   Overcast
9:55 PM 36.0 °F 28.5 °F 34.0 °F 93% 29.89 in 5.0 mi North 10.4 mph 17.3 mph N/A   Overcast
10:15 PM 35.2 °F 25.8 °F 34.0 °F 95% 29.88 in 3.0 mi North 15.0 mph 18.4 mph N/A Rain Light Rain
10:35 PM 35.1 °F 25.5 °F 34.0 °F 96% 29.87 in 3.0 mi North 15.0 mph 24.2 mph N/A Snow Light Snow
10:55 PM 34.7 °F 24.7 °F 33.8 °F 97% 29.87 in 2.5 mi North 16.1 mph 24.2 mph N/A Snow Light Snow
11:15 PM 34.3 °F 24.6 °F 33.3 °F 96% 29.86 in 3.0 mi North 15.0 mph 23.0 mph N/A   Drizzle
11:35 PM 34.0 °F 23.4 °F 32.9 °F 96% 29.86 in 4.0 mi North 17.3 mph 24.2 mph N/A   Drizzle
11:55 PM 34.2 °F 24.8 °F 32.9 °F 95% 29.85 in 5.0 mi North 13.8 mph - N/A   Light Drizzle